Salt Lake City, UT

5:57 AM MDT on June 24, 2017 (GMT -0600)
Salt Lake City International

Weather History for KSLC - July, 2013

Change the Weather History Date:

Monday, July 8, 2013

  Actual Average Record
Temperature  
Mean Temperature 82 °F 78 °F  
Max Temperature 95 °F 92 °F 101 °F (1976)
Min Temperature 69 °F 64 °F 45 °F (1955)
Degree Days  
Heating Degree Days 0 0  
Month to date heating degree days 0 0  
Since 1 June heating degree days 4 46  
Since 1 July heating degree days 0 0  
Cooling Degree Days 17 13  
Month to date cooling degree days 152 93  
Year to date cooling degree days 545 330  
Since 1 June cooling degree days 475 280  
Growing Degree Days 32 (Base 50)    
Moisture  
Dew Point 49 °F    
Average Humidity 38    
Maximum Humidity 57    
Minimum Humidity 19    
Precipitation  
Precipitation T in 0.02 in 0.93 in (2015)
Month to date precipitation 0.82 0.12  
Year to date precipitation 6.94 9.33  
Snow  
Snow 0.00 in 0.00 in - ()
Month to date snowfall 0.0 0.0  
Since 1 July snowfall 0.0 0.0  
Snow Depth 0.00 in    
Sea Level Pressure  
Sea Level Pressure 29.87 in    
Wind  
Wind Speed 8 mph (SSE)    
Max Wind Speed 29 mph    
Max Gust Speed 39 mph    
Visibility 10 miles    
Events Rain , Thunderstorm    
T = Trace of Precipitation, MM = Missing Value Source: NWS Daily Summary

Daily Weather History Graph

Daily Weather History Graph

Search for Another Location

Airport or City:

Trip Planner

Search our weather history database for the weather conditions in past years. The results will help you decide how hot, cold, wet, or windy it might be!

Date:

Astronomy

Jul. 08, 2013 Rise Set
Actual Time 6:04 AM MDT 9:01 PM MDT
Civil Twilight 5:31 AM MDT 9:34 PM MDT
Nautical Twilight 4:49 AM MDT 10:15 PM MDT
Astronomical Twilight 4:01 AM MDT 11:04 PM MDT
Moon 6:37 AM MDT (7/8) 9:05 PM MDT (7/8)
Length of Visible Light 16h 02m
Length of Day
14h 56m
New Moon, 0% of the Moon is Illuminated
Jul 8
New Moon
Jul 15
First Quarter
Jul 22
Full
Jul 29
Last Quarter
Aug 6
New

Hourly Weather History & Observations

Time (MDT) Temp. Heat Index Dew Point Humidity Pressure Visibility Wind Dir Wind Speed Gust Speed Precip Events Conditions
12:53 AM 75.0 °F - 54.0 °F 48% 29.81 in 10.0 mi South 11.5 mph - N/A   Mostly Cloudy
1:53 AM 75.9 °F - 53.1 °F 45% 29.80 in 10.0 mi South 5.8 mph - N/A   Mostly Cloudy
2:53 AM 75.9 °F - 53.1 °F 45% 29.81 in 10.0 mi SSE 10.4 mph - N/A   Mostly Cloudy
3:53 AM 73.9 °F - 54.0 °F 50% 29.85 in 10.0 mi SSW 3.5 mph - N/A   Mostly Cloudy
4:53 AM 73.0 °F - 54.0 °F 51% 29.86 in 10.0 mi SSE 3.5 mph - N/A   Mostly Cloudy
5:53 AM 70.0 °F - 54.0 °F 57% 29.88 in 10.0 mi East 6.9 mph - N/A   Mostly Cloudy
6:53 AM 73.9 °F - 54.0 °F 50% 29.87 in 10.0 mi SSE 11.5 mph - N/A   Mostly Cloudy
7:53 AM 75.9 °F - 54.0 °F 46% 29.90 in 10.0 mi SSE 11.5 mph - N/A   Scattered Clouds
8:53 AM 79.0 °F - 54.0 °F 42% 29.91 in 10.0 mi SE 8.1 mph - N/A   Partly Cloudy
9:53 AM 82.9 °F 81.8 °F 53.1 °F 36% 29.91 in 10.0 mi SE 6.9 mph - N/A   Partly Cloudy
10:53 AM 86.0 °F 84.0 °F 53.1 °F 32% 29.90 in 10.0 mi SSE 8.1 mph - N/A   Scattered Clouds
11:53 AM 90.0 °F - 48.0 °F 24% 29.89 in 10.0 mi South 9.2 mph 18.4 mph N/A   Scattered Clouds
12:53 PM 93.0 °F - 46.9 °F 20% 29.88 in 10.0 mi Variable 4.6 mph 18.4 mph N/A   Scattered Clouds
1:53 PM 93.9 °F - 46.0 °F 19% 29.86 in 10.0 mi Variable 4.6 mph - N/A   Scattered Clouds
2:53 PM 93.9 °F - 45.0 °F 18% 29.85 in 10.0 mi Calm Calm - N/A   Scattered Clouds
3:26 PM 93.2 °F - 46.4 °F 20% 30.05 in 10.0 mi SSW 5.8 mph - N/A Thunderstorm Thunderstorm
3:53 PM 86.0 °F - 50.0 °F 29% 29.88 in 10.0 mi SSE 18.4 mph 29.9 mph 0.00 in Rain , Thunderstorm Light Thunderstorms and Rain
3:59 PM 87.8 °F - 51.8 °F 29% 30.07 in 10.0 mi SSE 18.4 mph 25.3 mph 0.00 in   Mostly Cloudy
4:53 PM 93.0 °F - 43.0 °F 18% 29.86 in 10.0 mi East 16.1 mph 23.0 mph 0.00 in   Scattered Clouds
5:53 PM 93.9 °F - 43.0 °F 17% 29.84 in 10.0 mi SE 9.2 mph - N/A   Scattered Clouds
6:53 PM 93.9 °F - 42.1 °F 17% 29.81 in 10.0 mi ESE 8.1 mph - N/A   Scattered Clouds
7:53 PM 93.0 °F - 43.0 °F 18% 29.81 in 10.0 mi East 6.9 mph - N/A   Scattered Clouds
8:53 PM 87.1 °F - 45.0 °F 23% 29.82 in 10.0 mi ESE 6.9 mph - N/A   Scattered Clouds
9:53 PM 82.9 °F - 46.9 °F 28% 29.84 in 10.0 mi SSE 10.4 mph - N/A   Scattered Clouds
10:53 PM 80.1 °F - 46.0 °F 30% 29.85 in 10.0 mi SSE 8.1 mph - N/A   Partly Cloudy
11:53 PM 79.0 °F - 46.0 °F 31% 29.85 in 10.0 mi SSE 8.1 mph - N/A   Partly Cloudy